DW1850 Weather Reports


Display with metric or nautical units.
time (UTC)temp
F
wind
direction
speed
MPH
gust
MPH
rain 1hr
in
rain 24hr
in
rain mn
in
humidity
%
barometer
mb
20260506185744 76 315 11.0 17.0 0.00 0.00 0.00 69 1008.6
20260506182743 78 343 1.0 13.0 0.00 0.00 0.00 70 1008.3
20260506175742 75 54 0.0 6.0 0.00 0.00 0.00 75 1008.2
20260506172741 72 55 0.0 9.0 0.00 0.00 0.00 78 1007.8
20260506165741 69 32 0.0 9.0 0.00 0.00 0.00 81 1007.8
20260506162740 65 5 1.0 20.0 0.00 0.00 0.00 92 1008.5
20260506155740 64 16 7.0 24.0 0.00 0.00 0.00 91 1009.1
20260506152738 67 346 10.0 20.0 0.00 0.00 0.00 87 1008.6
20260506145738 75 344 8.0 17.0 0.00 0.00 0.00 77 1008.1
20260506142737 78 164 4.0 10.0 0.00 0.00 0.00 87 1006.7
20260506135736 76 171 1.0 7.0 0.00 0.00 0.00 91 1006.8
20260506132735 75 171 1.0 8.0 0.00 0.00 0.00 92 1006.3
20260506125735 75 172 0.0 7.0 0.00 0.00 0.00 93 1006.0
20260506122734 75 172 0.0 0.0 0.00 0.00 0.00 93 1005.6
20260506115733 75 172 0.0 0.0 0.00 0.00 0.00 92 1005.9
20260506095730 75 172 0.0 9.0 0.00 0.00 0.00 91 1005.4
20260506092730 75 172 0.0 9.0 0.00 0.00 0.00 91 1004.9
20260506085729 75 173 1.0 10.0 0.00 0.00 0.00 90 1004.4
20260506082728 76 172 4.0 12.0 0.00 0.00 0.00 90 1004.5
20260506072756 76 170 6.0 14.0 0.00 0.00 0.00 90 1005.1
20260506035751 77 159 4.0 12.0 0.00 0.00 0.00 88 1004.6
20260506032750 78 164 2.0 9.0 0.00 0.00 0.00 86 1004.2
20260506022749 79 165 6.0 9.0 0.00 0.00 0.00 83 1003.3
20260506015748 79 165 0.0 9.0 0.00 0.00 0.00 81 1002.7
20260506012747 80 169 2.0 12.0 0.00 0.00 0.00 79 1002.7
20260506005747 82 170 0.0 9.0 0.00 0.00 0.00 76 1002.7
20260506002746 82 170 6.0 10.0 0.00 0.00 0.00 74 1002.7
20260505235745 83 169 10.0 13.0 0.00 0.00 0.00 73 1002.7
20260505232744 83 175 2.0 13.0 0.00 0.00 0.00 72 1002.4
20260505225743 84 177 7.0 15.0 0.00 0.00 0.00 71 1002.4
20260505222743 85 162 12.0 15.0 0.00 0.00 0.00 69 1002.2
20260505215742 85 163 1.0 15.0 0.00 0.00 0.00 68 1002.4
20260505212741 85 174 11.0 16.0 0.00 0.00 0.00 69 1002.8
20260505205740 84 146 13.0 15.0 0.00 0.00 0.00 71 1002.9
20260505202740 84 165 7.0 15.0 0.00 0.00 0.00 71 1003.5